This is the latest recevied weather packets stored in our database for station/object VK3CG. If no packets are shown the sender has not sent any weather packets the latest 10 day(s).
| Time | Temp. | Humidity | Pressure | Rain* | Wind** | Luminosity | Snow |
|---|---|---|---|---|---|---|---|
| 1778025632 | 11.67° C | 58% | 1031.8 hPa | 0 mm | - | 113 W/m² | - |
| 1778024754 | 11.67° C | 58% | 1031.8 hPa | 0 mm | - | 132 W/m² | - |
| 1778023829 | 11.67° C | 58% | 1031.9 hPa | 0 mm | - | 125 W/m² | - |
| 1778022928 | 11.11° C | 58% | 1031.9 hPa | 0 mm | - | 111 W/m² | - |
| 1778022031 | 11.11° C | 59% | 1032 hPa | 0 mm | - | 104 W/m² | - |
| 1778021124 | 10.56° C | 59% | 1032.1 hPa | 0 mm | - | 84 W/m² | - |
| 1778020220 | 10.56° C | 60% | 1032 hPa | 0 mm | - | 69 W/m² | - |
| 1778019319 | 10° C | 60% | 1031.9 hPa | 0 mm | - | 46 W/m² | - |
| 1778018424 | 10° C | 61% | 1031.9 hPa | 0 mm | - | 32 W/m² | - |
| 1778017522 | 10° C | 61% | 1031.9 hPa | 0 mm | - | 26 W/m² | - |
| 1778016611 | 10° C | 61% | 1032 hPa | 0 mm | - | 12 W/m² | - |
| 1778015709 | 10° C | 61% | 1032.1 hPa | 0 mm | - | 5 W/m² | - |
| 1778014809 | 10° C | 61% | 1032.2 hPa | 0 mm | - | 0 W/m² | - |
| 1778013907 | 10° C | 60% | 1032.1 hPa | 0 mm | - | 0 W/m² | - |
| 1778013007 | 10° C | 60% | 1032.1 hPa | 0 mm | - | 0 W/m² | - |
| 1778012106 | 10° C | 60% | 1032.1 hPa | 0 mm | - | 0 W/m² | - |
| 1778011207 | 10° C | 60% | 1032.1 hPa | 0 mm | - | 0 W/m² | - |
| 1778010314 | 10° C | 60% | 1032.2 hPa | 0 mm | - | 0 W/m² | - |
| 1778009412 | 10° C | 60% | 1032.2 hPa | 0 mm | - | 0 W/m² | - |
| 1778008504 | 10° C | 60% | 1032.2 hPa | 0 mm | - | 0 W/m² | - |
| 1778007602 | 10° C | 61% | 1032.3 hPa | 0 mm | - | 0 W/m² | - |
| 1778006702 | 10° C | 61% | 1032.2 hPa | 0 mm | - | 0 W/m² | - |
| 1778005801 | 10° C | 61% | 1032.2 hPa | 0 mm | - | 0 W/m² | - |
| 1778004962 | 10° C | 61% | 1032 hPa | 0 mm | - | 0 W/m² | - |
| 1778004064 | 10° C | 62% | 1032.2 hPa | 0 mm | - | 0 W/m² | - |
* Rain latest hour (hover to see other rain measurements)
** Current wind speed in m/s (hover to see current wind gust speed)